TimeCST,TemperatureF,Dew PointF,Humidity,Sea Level PressureIn,VisibilityMPH,Wind Direction,Wind SpeedMPH,Gust SpeedMPH,PrecipitationIn,Events,Conditions,WindDirDegrees,DateUTC
12:00 AM,50.0,48.2,94,30.00,10.0,Variable,5.8,-,N/A,,Overcast,0,2013-02-23 06:00:00
12:53 AM,48.9,46.9,93,29.98,10.0,NNW,5.8,-,N/A,,Overcast,330,2013-02-23 06:53:00
1:53 AM,48.0,45.0,89,29.98,10.0,North,5.8,-,N/A,,Mostly Cloudy,350,2013-02-23 07:53:00
2:53 AM,46.0,43.0,89,29.98,10.0,NNW,3.5,-,N/A,,Mostly Cloudy,340,2013-02-23 08:53:00
3:53 AM,45.0,42.1,90,29.96,10.0,North,3.5,-,N/A,,Clear,10,2013-02-23 09:53:00
4:53 AM,44.1,41.0,89,29.97,10.0,North,4.6,-,N/A,,Clear,350,2013-02-23 10:53:00
5:53 AM,43.0,39.9,89,29.96,10.0,NNE,3.5,-,N/A,,Clear,30,2013-02-23 11:53:00
6:53 AM,43.0,39.9,89,29.96,10.0,North,4.6,-,N/A,,Clear,10,2013-02-23 12:53:00
7:41 AM,44.6,41.0,87,29.98,10.0,North,3.5,-,N/A,,Partly Cloudy,10,2013-02-23 13:41:00
7:53 AM,45.0,41.0,86,29.98,10.0,North,4.6,-,N/A,,Partly Cloudy,360,2013-02-23 13:53:00
8:53 AM,48.0,42.1,80,30.00,10.0,North,6.9,-,N/A,,Partly Cloudy,10,2013-02-23 14:53:00
9:53 AM,51.1,42.1,71,29.99,10.0,Calm,Calm,-,N/A,,Clear,0,2013-02-23 15:53:00
10:53 AM,52.0,43.0,71,29.99,10.0,NNW,4.6,-,N/A,,Clear,330,2013-02-23 16:53:00
11:53 AM,53.1,44.1,71,29.96,10.0,NNW,6.9,-,N/A,,Clear,340,2013-02-23 17:53:00
12:53 PM,55.0,45.0,69,29.94,10.0,NW,5.8,-,N/A,,Clear,320,2013-02-23 18:53:00
1:53 PM,57.0,44.1,62,29.92,10.0,North,4.6,-,N/A,,Clear,350,2013-02-23 19:53:00
2:53 PM,57.9,44.1,60,29.91,10.0,North,4.6,-,N/A,,Clear,10,2013-02-23 20:53:00
3:53 PM,59.0,44.1,58,29.90,10.0,NW,4.6,-,N/A,,Partly Cloudy,320,2013-02-23 21:53:00
4:53 PM,55.9,42.1,60,29.91,10.0,NNW,6.9,16.1,N/A,,Clear,340,2013-02-23 22:53:00
5:53 PM,52.0,41.0,66,29.94,10.0,NNW,6.9,-,N/A,,Clear,330,2013-02-23 23:53:00
6:53 PM,50.0,37.0,61,29.96,10.0,NNW,3.5,-,N/A,,Clear,340,2013-02-24 00:53:00
7:53 PM,48.0,37.0,66,29.96,10.0,NNW,3.5,-,N/A,,Clear,330,2013-02-24 01:53:00
9:53 PM,44.1,37.0,76,29.98,10.0,Calm,Calm,-,N/A,,Clear,0,2013-02-24 03:53:00
10:53 PM,41.0,37.0,86,29.98,10.0,Calm,Calm,-,N/A,,Clear,0,2013-02-24 04:53:00
11:53 PM,41.0,37.0,86,29.98,10.0,Calm,Calm,-,N/A,,Clear,0,2013-02-24 05:53:00